SCP
0 0 0 0 0 0 0 0 0 0 0 0 0 0 0 0 0 0 0 0 0 0 0 0 0 0 0 0 0 0 0 0 0 0 0 0 0 0 0 0 0 0 0
0 0 0 0 0 0 0 0 0 0 0 0 0 0 0 0 0 0 0 0 0 0 0 0 0 0 0 0 0 0 0 0 0 0 0 0 0 0 0 0 0 0 0
0 0 0 0 0 0 0 0 0 0 0 0 0 0 0 0 0 0 0 0 0 0 0 0 0 0 0 0 0 0 0 0 0 0 0 0 0 0 0 0 0 0 0
0 0 0 0 0 0 0 0 0 0 0 0 0 0 0 0 0 0 0 0 0 0 0 0 0 0 0 0 0 0 0 0 0 0 0 0 0 0 0 0 0 0 0
0 0 0 0 0 0 0 0 0 0 0 0 0 0 0 0 0 0 0 0 0 0 0 0 0 0 0 0 0 0 0 0 0 0 0 0 0 0 0 0 0 0 0
0 0 0 0 0 0 0 0 0 0 0 0 0 0 0 0 0 0 0 0 0 0 0 0 0 0 0 0 0 0 0 0 0 0 0 0 0 0 0 0 0 0 0
0 0 0 0 0 0 0 0 0 0 0 0 0 0 0 0 0 0 0 0 0 0 0 0 0 0 0 0 0 0 0 0 0 0 0 0 0 0 0 0 0 0 0
0 0 0 0 0 0 0 0 0 0 0 0 0 0 0 0 0 0 0 0 0 0 0 0 0 0 0 0 0 0 0 0 0 0 0 0 0 0 0 0 0 0 0
0 0 0 0 0 0 0 0 0 0 0 0 0 0 0 0 0 0 0 0 0 0 0 0 0 0 0 0 0 0 0 0 0 0 0 0 0 0 0 0 0 0 0
0 0 0 0 0 0 0 0 0 0 0 0 0 0 0 0 0 0 0 0 0 0 0 0 0 0 0 0 0 0 0 0 0 0 0 0 0 0 0 0 0 0 0
0 0 0 0 0 0 0 0 0 0 0 0 0 0 0 0 0 0 0 0 0 0 0 0 0 0 0 0 0 0 0 0 0 0 0 0 0 0 0 0 0 0 0
0 0 0 0 0 0 0 0 0 0 0 0 0 0 0 0 0 0 0 0 0 0 0 0 0 0 0 0 0 0 0 0 0 0 0 0 0 0 0 0 0 0 0
0 0 0 0 0 0 0 0 0 0 0 0 0 0 0 0 0 0 0 0 0 0 0 0 0 0 0 0 0 0 0 0 0 0 0 0 0 0 0 0 0 0 0
0 0 0 0 0 0 0 0 0 0 0 0 0 0 0 0 0 0 0 0 0 0 0 0 0 0 0 0 0 0 0 0 0 0 0 0 0 0 0 0 0 0 0
0 0 0 0 0 0 0 0 0 0 0 0 0 0 0 0 0 0 0 0 0 0 0 0 0 0 0 0 0 0 0 0 0 0 0 0 0 0 0 0 0 0 0
0 0 0 0 0 0 0 0 0 0 0 0 0 0 0 0 0 0 0 0 0 0 0 0 0 0 0 0 0 0 0 0 0 0 0 0 0 0 0 0 0 0 0
0 0 0 0 0 0 0 0 0 0 0 0 0 0 0 0 -0 -0 -0 0 0 0 0 0 0 0 0 0 0 0 0 0 0 0 0 0 0 0 0 0 0 0 0
0 0 0 0 0 0 0 0 0 0 0 0 0 0 0 0 -0 -0 -0 0 0 0 0 0 0 0 0 0 0 0 0 0 0 0 0 0 0 0 0 0 0 0 0
0 0 0 0 0 0 0 0 0 0 0 0 0 0 0 0 0 0 0 0 0 0 0 0 0 0 0 0 0 0 0 0 0 0 0 0 0 0 0 0 0 0 0
0 0 0 0 0 0 0 0 0 0 0 0 0 0 0 0 0 0 0 0 0 0 0 0 0 0 0 0 0 0 0 0 0 0 0 0 0 0 0 0 0 0 0
0 0 0 0 0 0 0 0 0 0 0 0 0 0 0 0 0 0 0 0 0 0 0 0 0 0 0 0 0 0 0 0 0 0 0 0 0 0 0 0 0 0 0
0 0 0 0 0 0 0 0 0 0 0 0 0 0 0 0 0 0 0 0 0 0 0 0 0 0 0 0 0 0 0 0 0 0 0 0 0 0 0 0 0 0 0
0 0 0 0 0 0 0 0 0 0 0 0 0 0 0 0 0 0 0 0 0 0 0 0 0 0 0 0 0 0 0 0 0 0 0 0 0 0 0 0 0 0 0
0 0 0 0 0 0 0 0 0 0 0 0 0 0 0 0 0 0 0 0 0 0 0 0 0 0 0 0 0 0 0 0 0 0 0 0 0 0 0 0 0 0 0
0 0 0 0 0 0 0 0 0 0 0 0 0 0 0 0 0 0 0 0 0 0 0 0 0 0 0 0 0 0 0 0 0 0 0 0 0 0 0 0 0 0 0
0 0 0 0 0 0 0 0 0 0 0 0 0 0 0 0 0 0 0 0 0 0 0 0 0 0 0 0 0 0 0 0 0 0 0 0 0 0 0 0 0 0 0
Wind_Speed_500mb
27 27 31 36 42 47 53 56 58 61 65 71 68 66 69 73 77 93 103 93 95 98 99 91 82 95 89 86 84 78 69 65 60 57 50 47 38 37 39 37 33 27 28
21 19 24 36 45 49 53 54 57 60 63 68 68 64 65 67 70 81 95 91 93 96 82 91 94 91 89 85 83 78 66 65 61 52 56 45 43 38 37 37 26 30 28
40 40 46 46 49 59 60 59 60 64 69 68 68 66 62 65 69 77 86 89 99 89 86 94 93 92 91 87 82 68 62 64 57 46 39 44 42 42 42 31 30 32 31
56 57 59 57 62 67 68 68 68 70 73 74 70 67 65 64 67 70 78 87 88 84 89 95 91 87 88 83 75 63 66 64 52 39 37 37 40 42 35 32 37 35 33
60 64 65 63 66 70 73 73 74 73 76 73 70 67 67 68 71 73 74 78 82 80 95 88 86 84 77 69 67 69 67 63 50 42 43 38 44 41 39 35 38 35 36
60 67 65 66 68 69 72 75 76 73 72 71 70 66 67 70 71 71 73 78 81 82 84 88 86 80 70 64 63 70 72 65 48 44 43 38 39 40 38 37 38 37 42
64 64 64 63 64 63 62 65 70 71 69 70 69 66 64 65 66 66 71 77 81 84 89 89 84 77 66 61 66 71 53 48 39 34 31 33 39 45 41 36 38 41 44
57 56 58 60 61 59 61 61 62 64 66 66 64 62 62 60 60 67 71 72 78 82 84 83 78 71 65 70 81 68 59 50 33 29 36 44 43 53 42 43 41 45 46
49 51 51 54 59 60 62 60 59 60 61 60 61 59 60 56 55 63 66 71 74 74 75 73 68 60 66 78 79 72 60 43 34 28 41 46 56 53 45 43 41 44 45
54 52 52 52 54 55 55 58 58 57 54 54 57 56 54 53 54 61 68 67 67 65 67 61 59 62 73 80 81 69 62 43 26 29 42 51 45 45 46 42 41 43 40
51 53 54 54 55 53 50 48 48 48 49 52 53 50 48 47 51 56 58 60 61 64 65 62 61 69 74 80 72 70 53 42 38 35 43 42 44 49 48 42 43 41 39
59 53 51 49 47 47 43 38 38 39 41 38 38 38 38 41 46 46 42 47 51 52 54 62 66 77 79 76 68 51 49 41 41 47 47 47 47 50 45 41 39 39 41
65 56 50 49 43 37 35 33 28 27 26 25 28 28 31 31 32 26 32 36 26 37 44 56 63 65 75 68 54 58 51 51 49 48 47 49 47 42 37 40 40 42 41
50 50 47 42 36 31 24 23 22 18 16 15 18 19 22 22 22 22 39 40 25 27 29 40 56 62 70 69 60 46 45 52 53 53 51 46 43 43 42 42 45 44 43
46 41 31 28 23 19 14 11 10 8 10 10 8 7 8 13 15 21 31 35 30 26 32 48 53 55 60 60 60 55 53 56 57 58 54 52 49 46 47 47 48 49 48
37 31 25 25 16 11 8 11 13 10 15 20 21 22 17 16 15 20 29 29 24 26 36 44 49 52 55 58 55 60 64 63 59 53 53 51 52 53 50 51 53 52 51
31 28 23 15 10 14 15 17 21 21 19 21 23 21 21 19 18 21 26 26 24 31 32 36 40 46 50 48 51 59 62 54 48 49 48 49 50 51 55 55 54 53 52
30 23 17 11 10 11 11 11 12 13 12 11 13 14 17 19 18 20 23 26 33 34 37 36 36 39 40 44 49 50 48 47 48 48 50 51 51 53 53 53 52 50 51
27 20 16 14 13 11 9 9 8 8 8 6 9 13 15 17 18 19 20 26 32 36 37 36 36 37 36 40 44 46 42 40 41 45 47 47 46 47 47 48 48 49 49
25 20 16 16 12 5 7 7 6 5 6 8 11 14 14 15 17 18 22 24 23 24 28 31 31 35 38 36 33 33 35 36 37 39 41 41 42 44 46 45 46 46 46
17 16 13 10 9 10 11 12 12 10 9 11 11 12 13 13 13 16 18 19 20 23 26 27 27 29 28 28 29 31 33 33 35 37 39 41 43 43 42 44 44 46 45
17 14 10 9 11 12 11 10 10 9 9 8 6 4 5 6 6 7 10 13 16 18 21 23 24 27 29 30 32 33 34 35 37 39 39 40 42 42 43 43 44 44 44
8 9 8 8 8 9 8 8 7 6 4 4 3 4 5 5 6 9 13 17 21 23 25 27 28 30 32 33 36 38 39 39 40 42 42 41 41 42 43 45 43 43 43
11 10 10 10 10 9 8 6 5 3 1 2 4 6 8 11 13 16 20 23 26 29 31 33 34 36 37 39 40 41 42 43 44 44 44 45 46 47 47 45 42 40 40
17 18 18 15 11 8 5 4 2 2 4 7 11 13 15 18 20 22 24 27 30 32 34 36 38 39 39 40 42 43 44 44 43 45 47 48 47 46 45 43 41 40 41
17 15 13 11 8 6 3 3 6 9 12 15 18 20 22 25 28 31 33 35 37 38 40 41 42 42 43 43 43 44 44 45 46 46 47 47 46 45 45 42 42 43 43
Wind_Direction_500mb
256 258 263 267 267 265 265 266 267 270 271 269 270 268 263 258 250 241 242 241 251 246 250 246 249 247 244 242 241 232 231 233 236 224 216 208 207 214 221 229 236 251 263
259 273 299 295 284 279 277 276 271 269 272 270 270 269 265 260 253 243 243 245 251 246 247 248 244 251 244 242 240 236 222 228 227 220 204 203 212 217 223 229 240 255 264
287 286 294 293 292 286 281 279 276 272 270 269 267 266 264 260 256 243 244 248 249 247 248 247 249 243 240 241 237 218 223 221 216 208 207 209 212 216 222 229 248 260 271
292 290 289 284 286 279 275 272 273 272 270 269 267 267 265 258 254 247 245 250 247 248 249 252 245 246 245 242 228 212 210 218 201 208 212 212 216 219 222 243 254 261 272
285 288 290 288 284 279 273 272 274 275 272 269 267 265 262 256 250 246 247 249 249 250 250 246 247 246 246 239 219 210 214 197 205 210 212 214 215 218 234 244 255 268 279
286 287 287 287 286 281 278 278 275 272 271 270 268 265 262 257 250 249 249 252 249 250 252 245 244 242 240 224 215 218 210 220 207 213 219 223 223 237 234 244 260 273 286
290 290 288 286 282 281 278 274 274 275 274 270 268 266 262 257 251 248 252 252 249 247 249 243 241 237 228 207 206 203 201 205 217 231 234 249 243 236 242 247 262 274 283
293 291 288 285 282 280 278 276 274 273 271 271 269 268 266 260 251 250 252 255 256 250 247 245 240 234 212 199 203 199 205 208 225 242 262 269 237 244 244 248 262 273 283
298 296 293 288 285 282 279 278 274 272 271 269 269 267 265 262 253 250 251 255 254 248 245 240 233 227 203 204 208 206 215 217 233 257 275 255 240 253 262 256 262 274 283
308 303 300 299 294 287 281 276 272 266 265 263 264 264 264 260 252 251 253 251 247 242 239 231 224 211 208 208 207 216 213 218 240 268 277 265 257 255 256 260 267 273 279
306 305 303 298 293 287 283 280 275 266 259 257 258 257 255 252 253 253 255 251 245 238 235 223 210 208 210 212 212 212 223 236 250 276 278 256 248 249 250 256 263 269 271
306 303 301 297 289 285 280 278 272 266 263 260 261 258 254 250 250 247 243 252 249 246 240 224 213 200 209 207 213 210 230 243 258 272 272 253 250 249 252 257 260 261 273
300 304 306 300 290 282 277 269 261 263 261 267 264 261 261 256 247 238 218 239 244 238 236 227 214 198 202 206 215 227 241 256 265 269 269 256 256 256 254 253 257 265 271
300 299 298 290 286 278 270 266 251 236 228 230 251 261 262 254 240 205 202 218 214 219 220 216 198 197 210 217 227 231 249 259 270 279 271 261 257 255 258 263 263 267 272
295 290 285 278 267 260 252 234 240 201 193 173 187 194 233 249 232 205 202 209 208 206 191 186 192 202 210 222 228 240 245 256 269 275 262 259 258 259 263 261 264 268 271
286 282 274 251 228 195 182 165 134 124 131 123 122 119 123 131 146 175 188 197 198 194 191 193 199 209 218 226 232 238 257 266 271 263 256 256 256 258 260 262 265 268 271
276 264 244 220 189 147 145 142 138 132 127 123 123 119 117 120 132 147 167 181 189 192 200 210 220 227 233 237 241 254 269 272 270 262 255 256 254 256 257 262 265 265 270
259 246 224 208 187 150 136 140 135 137 137 124 117 120 124 128 138 156 174 182 196 209 222 221 230 243 252 256 261 263 266 266 262 257 256 261 257 256 257 258 260 268 269
237 227 197 154 139 127 127 141 150 143 140 140 141 135 141 149 153 157 173 201 210 216 230 241 248 255 258 260 263 265 265 265 262 260 261 259 258 257 258 259 263 265 268
201 190 166 145 120 159 180 164 155 144 138 142 146 144 166 173 183 193 202 216 234 243 247 250 254 256 261 269 268 266 265 264 265 265 263 263 261 260 264 266 265 268 273
166 154 141 136 162 174 172 175 180 179 158 158 165 163 150 146 163 177 194 215 226 234 242 251 256 262 266 266 266 265 265 265 265 265 265 264 264 268 267 264 266 269 272
141 136 143 175 184 178 181 184 191 194 196 200 200 211 196 198 211 231 236 240 244 247 251 255 259 263 265 266 264 263 263 263 263 264 264 265 265 264 264 266 269 270 269
156 149 150 167 166 168 171 175 185 197 215 233 242 267 272 275 279 274 273 275 276 278 278 278 278 277 276 275 273 270 268 267 264 263 263 264 264 265 267 269 268 265 265
122 126 142 145 144 146 147 151 158 164 181 319 311 304 310 306 301 295 291 288 287 287 287 287 285 284 283 281 278 275 272 268 267 267 265 265 266 265 264 263 263 263 263
134 138 137 134 130 128 130 125 104 358 327 319 311 314 309 301 297 293 293 293 290 289 288 286 285 284 281 278 276 274 273 272 270 268 267 266 264 263 263 262 261 261 261
121 119 118 119 124 113 82 8 331 318 314 308 304 301 298 297 296 294 292 289 290 289 287 287 286 285 284 282 279 276 274 273 272 270 269 266 265 264 263 263 261 260 259
Wind_Speed_850mb
27 27 31 36 42 47 53 56 58 61 65 71 68 66 69 73 77 93 103 93 95 98 99 91 82 95 89 86 84 78 69 65 60 57 50 47 38 37 39 37 33 27 28
21 19 24 36 45 49 53 54 57 60 63 68 68 64 65 67 70 81 95 91 93 96 82 91 94 91 89 85 83 78 66 65 61 52 56 45 43 38 37 37 26 30 28
40 40 46 46 49 59 60 59 60 64 69 68 68 66 62 65 69 77 86 89 99 89 86 94 93 92 91 87 82 68 62 64 57 46 39 44 42 42 42 31 30 32 31
56 57 59 57 62 67 68 68 68 70 73 74 70 67 65 64 67 70 78 87 88 84 89 95 91 87 88 83 75 63 66 64 52 39 37 37 40 42 35 32 37 35 33
60 64 65 63 66 70 73 73 74 73 76 73 70 67 67 68 71 73 74 78 82 80 95 88 86 84 77 69 67 69 67 63 50 42 43 38 44 41 39 35 38 35 36
60 67 65 66 68 69 72 75 76 73 72 71 70 66 67 70 71 71 73 78 81 82 84 88 86 80 70 64 63 70 72 65 48 44 43 38 39 40 38 37 38 37 42
64 64 64 63 64 63 62 65 70 71 69 70 69 66 64 65 66 66 71 77 81 84 89 89 84 77 66 61 66 71 53 48 39 34 31 33 39 45 41 36 38 41 44
57 56 58 60 61 59 61 61 62 64 66 66 64 62 62 60 60 67 71 72 78 82 84 83 78 71 65 70 81 68 59 50 33 29 36 44 43 53 42 43 41 45 46
49 51 51 54 59 60 62 60 59 60 61 60 61 59 60 56 55 63 66 71 74 74 75 73 68 60 66 78 79 72 60 43 34 28 41 46 56 53 45 43 41 44 45
54 52 52 52 54 55 55 58 58 57 54 54 57 56 54 53 54 61 68 67 67 65 67 61 59 62 73 80 81 69 62 43 26 29 42 51 45 45 46 42 41 43 40
51 53 54 54 55 53 50 48 48 48 49 52 53 50 48 47 51 56 58 60 61 64 65 62 61 69 74 80 72 70 53 42 38 35 43 42 44 49 48 42 43 41 39
59 53 51 49 47 47 43 38 38 39 41 38 38 38 38 41 46 46 42 47 51 52 54 62 66 77 79 76 68 51 49 41 41 47 47 47 47 50 45 41 39 39 41
65 56 50 49 43 37 35 33 28 27 26 25 28 28 31 31 32 26 32 36 26 37 44 56 63 65 75 68 54 58 51 51 49 48 47 49 47 42 37 40 40 42 41
50 50 47 42 36 31 24 23 22 18 16 15 18 19 22 22 22 22 39 40 25 27 29 40 56 62 70 69 60 46 45 52 53 53 51 46 43 43 42 42 45 44 43
46 41 31 28 23 19 14 11 10 8 10 10 8 7 8 13 15 21 31 35 30 26 32 48 53 55 60 60 60 55 53 56 57 58 54 52 49 46 47 47 48 49 48
37 31 25 25 16 11 8 11 13 10 15 20 21 22 17 16 15 20 29 29 24 26 36 44 49 52 55 58 55 60 64 63 59 53 53 51 52 53 50 51 53 52 51
31 28 23 15 10 14 15 17 21 21 19 21 23 21 21 19 18 21 26 26 24 31 32 36 40 46 50 48 51 59 62 54 48 49 48 49 50 51 55 55 54 53 52
30 23 17 11 10 11 11 11 12 13 12 11 13 14 17 19 18 20 23 26 33 34 37 36 36 39 40 44 49 50 48 47 48 48 50 51 51 53 53 53 52 50 51
27 20 16 14 13 11 9 9 8 8 8 6 9 13 15 17 18 19 20 26 32 36 37 36 36 37 36 40 44 46 42 40 41 45 47 47 46 47 47 48 48 49 49
25 20 16 16 12 5 7 7 6 5 6 8 11 14 14 15 17 18 22 24 23 24 28 31 31 35 38 36 33 33 35 36 37 39 41 41 42 44 46 45 46 46 46
17 16 13 10 9 10 11 12 12 10 9 11 11 12 13 13 13 16 18 19 20 23 26 27 27 29 28 28 29 31 33 33 35 37 39 41 43 43 42 44 44 46 45
17 14 10 9 11 12 11 10 10 9 9 8 6 4 5 6 6 7 10 13 16 18 21 23 24 27 29 30 32 33 34 35 37 39 39 40 42 42 43 43 44 44 44
8 9 8 8 8 9 8 8 7 6 4 4 3 4 5 5 6 9 13 17 21 23 25 27 28 30 32 33 36 38 39 39 40 42 42 41 41 42 43 45 43 43 43
11 10 10 10 10 9 8 6 5 3 1 2 4 6 8 11 13 16 20 23 26 29 31 33 34 36 37 39 40 41 42 43 44 44 44 45 46 47 47 45 42 40 40
17 18 18 15 11 8 5 4 2 2 4 7 11 13 15 18 20 22 24 27 30 32 34 36 38 39 39 40 42 43 44 44 43 45 47 48 47 46 45 43 41 40 41
17 15 13 11 8 6 3 3 6 9 12 15 18 20 22 25 28 31 33 35 37 38 40 41 42 42 43 43 43 44 44 45 46 46 47 47 46 45 45 42 42 43 43
Wind_Direction_850mb
256 258 263 267 267 265 265 266 267 270 271 269 270 268 263 258 250 241 242 241 251 246 250 246 249 247 244 242 241 232 231 233 236 224 216 208 207 214 221 229 236 251 263
259 273 299 295 284 279 277 276 271 269 272 270 270 269 265 260 253 243 243 245 251 246 247 248 244 251 244 242 240 236 222 228 227 220 204 203 212 217 223 229 240 255 264
287 286 294 293 292 286 281 279 276 272 270 269 267 266 264 260 256 243 244 248 249 247 248 247 249 243 240 241 237 218 223 221 216 208 207 209 212 216 222 229 248 260 271
292 290 289 284 286 279 275 272 273 272 270 269 267 267 265 258 254 247 245 250 247 248 249 252 245 246 245 242 228 212 210 218 201 208 212 212 216 219 222 243 254 261 272
285 288 290 288 284 279 273 272 274 275 272 269 267 265 262 256 250 246 247 249 249 250 250 246 247 246 246 239 219 210 214 197 205 210 212 214 215 218 234 244 255 268 279
286 287 287 287 286 281 278 278 275 272 271 270 268 265 262 257 250 249 249 252 249 250 252 245 244 242 240 224 215 218 210 220 207 213 219 223 223 237 234 244 260 273 286
290 290 288 286 282 281 278 274 274 275 274 270 268 266 262 257 251 248 252 252 249 247 249 243 241 237 228 207 206 203 201 205 217 231 234 249 243 236 242 247 262 274 283
293 291 288 285 282 280 278 276 274 273 271 271 269 268 266 260 251 250 252 255 256 250 247 245 240 234 212 199 203 199 205 208 225 242 262 269 237 244 244 248 262 273 283
298 296 293 288 285 282 279 278 274 272 271 269 269 267 265 262 253 250 251 255 254 248 245 240 233 227 203 204 208 206 215 217 233 257 275 255 240 253 262 256 262 274 283
308 303 300 299 294 287 281 276 272 266 265 263 264 264 264 260 252 251 253 251 247 242 239 231 224 211 208 208 207 216 213 218 240 268 277 265 257 255 256 260 267 273 279
306 305 303 298 293 287 283 280 275 266 259 257 258 257 255 252 253 253 255 251 245 238 235 223 210 208 210 212 212 212 223 236 250 276 278 256 248 249 250 256 263 269 271
306 303 301 297 289 285 280 278 272 266 263 260 261 258 254 250 250 247 243 252 249 246 240 224 213 200 209 207 213 210 230 243 258 272 272 253 250 249 252 257 260 261 273
300 304 306 300 290 282 277 269 261 263 261 267 264 261 261 256 247 238 218 239 244 238 236 227 214 198 202 206 215 227 241 256 265 269 269 256 256 256 254 253 257 265 271
300 299 298 290 286 278 270 266 251 236 228 230 251 261 262 254 240 205 202 218 214 219 220 216 198 197 210 217 227 231 249 259 270 279 271 261 257 255 258 263 263 267 272
295 290 285 278 267 260 252 234 240 201 193 173 187 194 233 249 232 205 202 209 208 206 191 186 192 202 210 222 228 240 245 256 269 275 262 259 258 259 263 261 264 268 271
286 282 274 251 228 195 182 165 134 124 131 123 122 119 123 131 146 175 188 197 198 194 191 193 199 209 218 226 232 238 257 266 271 263 256 256 256 258 260 262 265 268 271
276 264 244 220 189 147 145 142 138 132 127 123 123 119 117 120 132 147 167 181 189 192 200 210 220 227 233 237 241 254 269 272 270 262 255 256 254 256 257 262 265 265 270
259 246 224 208 187 150 136 140 135 137 137 124 117 120 124 128 138 156 174 182 196 209 222 221 230 243 252 256 261 263 266 266 262 257 256 261 257 256 257 258 260 268 269
237 227 197 154 139 127 127 141 150 143 140 140 141 135 141 149 153 157 173 201 210 216 230 241 248 255 258 260 263 265 265 265 262 260 261 259 258 257 258 259 263 265 268
201 190 166 145 120 159 180 164 155 144 138 142 146 144 166 173 183 193 202 216 234 243 247 250 254 256 261 269 268 266 265 264 265 265 263 263 261 260 264 266 265 268 273
166 154 141 136 162 174 172 175 180 179 158 158 165 163 150 146 163 177 194 215 226 234 242 251 256 262 266 266 266 265 265 265 265 265 265 264 264 268 267 264 266 269 272
141 136 143 175 184 178 181 184 191 194 196 200 200 211 196 198 211 231 236 240 244 247 251 255 259 263 265 266 264 263 263 263 263 264 264 265 265 264 264 266 269 270 269
156 149 150 167 166 168 171 175 185 197 215 233 242 267 272 275 279 274 273 275 276 278 278 278 278 277 276 275 273 270 268 267 264 263 263 264 264 265 267 269 268 265 265
122 126 142 145 144 146 147 151 158 164 181 319 311 304 310 306 301 295 291 288 287 287 287 287 285 284 283 281 278 275 272 268 267 267 265 265 266 265 264 263 263 263 263
134 138 137 134 130 128 130 125 104 358 327 319 311 314 309 301 297 293 293 293 290 289 288 286 285 284 281 278 276 274 273 272 270 268 267 266 264 263 263 262 261 261 261
121 119 118 119 124 113 82 8 331 318 314 308 304 301 298 297 296 294 292 289 290 289 287 287 286 285 284 282 279 276 274 273 272 270 269 266 265 264 263 263 261 260 259